| time (UTC) | temp F | wind direction | speed MPH | gust MPH | rain 1hr in | rain 24hr in | rain mn in | humidity % | barometer mb |
| 20260906140113 | 74 | 360 | 1.0 | 3.0 | 0.00 | 1.22 | 0.01 | 54 | 1014.1 |
| 20260906140027 | 74 | 360 | 1.0 | 3.0 | 0.00 | 1.22 | 0.01 | 65 | 1014.0 |
| 20260906134628 | 74 | 0 | 0.0 | 2.0 | 0.00 | 1.22 | 0.01 | 54 | 1014.1 |
| 20260906134508 | 74 | 360 | 0.0 | 0.0 | 0.00 | 1.22 | 0.01 | 65 | 1014.0 |
| 20260906133100 | 74 | 0 | 0.0 | 2.0 | 0.00 | 1.22 | 0.01 | 54 | 1013.9 |
| 20260906133007 | 74 | 360 | 0.0 | 2.0 | 0.00 | 1.22 | 0.01 | 65 | 1013.7 |
| 20260906131600 | 74 | 0 | 0.0 | 1.0 | 0.00 | 1.22 | 0.01 | 54 | 1013.8 |
| 20260906131505 | 74 | 360 | 0.0 | 1.0 | 0.00 | 1.22 | 0.01 | 65 | 1013.5 |
| 20260906130148 | 74 | 0 | 0.0 | 3.0 | 0.00 | 1.22 | 0.01 | 54 | 1013.7 |
| 20260906130112 | 74 | 360 | 0.0 | 3.0 | 0.00 | 1.22 | 0.01 | 65 | 1013.4 |
| 20260906124611 | 74 | 0 | 0.0 | 1.0 | 0.00 | 1.22 | 0.01 | 54 | 1013.8 |
| 20260906124556 | 74 | 360 | 0.0 | 1.0 | 0.00 | 1.22 | 0.01 | 65 | 1013.5 |
| 20260906123105 | 74 | 0 | 0.0 | 3.0 | 0.00 | 1.22 | 0.01 | 53 | 1013.6 |
| 20260906123056 | 74 | 360 | 0.0 | 2.0 | 0.00 | 1.22 | 0.01 | 65 | 1013.4 |
| 20260906121609 | 74 | 360 | 0.0 | 0.0 | 0.00 | 1.22 | 0.01 | 53 | 1013.4 |
| 20260906121555 | 74 | 360 | 0.0 | 2.0 | 0.00 | 1.22 | 0.01 | 65 | 1013.1 |
| 20260906120112 | 74 | 0 | 0.0 | 0.0 | 0.00 | 1.22 | 0.01 | 54 | 1013.2 |
| 20260906120052 | 74 | 360 | 0.0 | 0.0 | 0.00 | 1.22 | 0.01 | 65 | 1012.9 |
| 20260906114650 | 74 | 360 | 0.0 | 0.0 | 0.00 | 1.22 | 0.01 | 65 | 1012.8 |
| 20260906114602 | 74 | 0 | 0.0 | 1.0 | 0.00 | 1.22 | 0.01 | 53 | 1013.2 |
| 20260906113102 | 74 | 0 | 0.0 | 1.0 | 0.00 | 1.22 | 0.01 | 53 | 1013.1 |
| 20260906113047 | 74 | 360 | 0.0 | 1.0 | 0.00 | 1.22 | 0.01 | 65 | 1012.8 |
| 20260906111604 | 74 | 0 | 0.0 | 2.0 | 0.00 | 1.22 | 0.01 | 53 | 1013.0 |
| 20260906111552 | 74 | 360 | 0.0 | 2.0 | 0.00 | 1.22 | 0.01 | 65 | 1012.6 |
| 20260906110057 | 74 | 0 | 0.0 | 2.0 | 0.00 | 1.22 | 0.01 | 53 | 1012.9 |
| 20260906110046 | 74 | 360 | 0.0 | 2.0 | 0.00 | 1.22 | 0.01 | 65 | 1012.5 |
| 20260906104605 | 74 | 0 | 0.0 | 2.0 | 0.00 | 1.22 | 0.01 | 53 | 1012.7 |
| 20260906104535 | 74 | 360 | 0.0 | 2.0 | 0.00 | 1.22 | 0.01 | 65 | 1012.2 |
| 20260906103104 | 74 | 0 | 0.0 | 0.0 | 0.00 | 1.22 | 0.01 | 53 | 1012.4 |
| 20260906103032 | 74 | 360 | 0.0 | 0.0 | 0.00 | 1.22 | 0.01 | 65 | 1012.1 |
| 20260906101607 | 74 | 0 | 0.0 | 4.0 | 0.00 | 1.22 | 0.01 | 53 | 1012.5 |
| 20260906101529 | 74 | 360 | 0.0 | 4.0 | 0.00 | 1.22 | 0.01 | 65 | 1012.2 |
| 20260906100100 | 74 | 0 | 0.0 | 2.0 | 0.00 | 1.22 | 0.01 | 53 | 1012.2 |
| 20260906100033 | 74 | 360 | 0.0 | 2.0 | 0.00 | 1.22 | 0.01 | 65 | 1011.9 |
| 20260906094601 | 74 | 0 | 0.0 | 2.0 | 0.00 | 1.22 | 0.01 | 53 | 1012.3 |
| 20260906094528 | 74 | 360 | 0.0 | 2.0 | 0.00 | 1.22 | 0.01 | 65 | 1012.0 |
| 20260906093103 | 74 | 360 | 0.0 | 3.0 | 0.00 | 1.22 | 0.01 | 53 | 1012.3 |
| 20260906093041 | 74 | 360 | 0.0 | 1.0 | 0.00 | 1.22 | 0.01 | 65 | 1012.0 |
| 20260906091602 | 74 | 0 | 0.0 | 2.0 | 0.00 | 1.22 | 0.01 | 53 | 1011.9 |
| 20260906091519 | 74 | 360 | 0.0 | 2.0 | 0.00 | 1.22 | 0.01 | 65 | 1011.8 |
| 20260906090103 | 74 | 360 | 0.0 | 2.0 | 0.00 | 1.22 | 0.01 | 53 | 1011.9 |
| 20260906090019 | 74 | 360 | 0.0 | 2.0 | 0.00 | 1.22 | 0.01 | 65 | 1011.7 |
| 20260906084606 | 74 | 0 | 0.0 | 3.0 | 0.00 | 1.22 | 0.01 | 53 | 1011.9 |
| 20260906084516 | 74 | 360 | 0.0 | 2.0 | 0.00 | 1.22 | 0.01 | 65 | 1011.8 |
| 20260906083104 | 74 | 0 | 0.0 | 2.0 | 0.00 | 1.22 | 0.01 | 53 | 1012.0 |
| 20260906083014 | 74 | 360 | 0.0 | 2.0 | 0.00 | 1.22 | 0.01 | 64 | 1011.8 |
| 20260906081601 | 74 | 360 | 0.0 | 2.0 | 0.00 | 1.22 | 0.01 | 53 | 1012.2 |
| 20260906081506 | 74 | 360 | 0.0 | 2.0 | 0.00 | 1.22 | 0.01 | 64 | 1011.8 |
| 20260906080006 | 74 | 360 | 0.0 | 1.0 | 0.00 | 1.22 | 0.01 | 64 | 1011.7 |
| 20260906074603 | 74 | 0 | 0.0 | 2.0 | 0.00 | 1.22 | 0.01 | 53 | 1011.9 |
| 20260906074516 | 74 | 360 | 0.0 | 2.0 | 0.00 | 1.22 | 0.01 | 64 | 1011.7 |
| 20260906073100 | 73 | 0 | 0.0 | 1.0 | 0.00 | 1.22 | 0.01 | 53 | 1011.9 |
| 20260906073002 | 73 | 360 | 0.0 | 1.0 | 0.00 | 1.22 | 0.01 | 64 | 1011.7 |
| 20260906071604 | 73 | 0 | 0.0 | 1.0 | 0.00 | 1.22 | 0.01 | 52 | 1012.0 |
| 20260906071559 | 73 | 360 | 0.0 | 0.0 | 0.00 | 1.22 | 0.01 | 64 | 1011.9 |
| 20260906070058 | 73 | 0 | 0.0 | 1.0 | 0.00 | 1.22 | 0.01 | 52 | 1012.2 |
| 20260906070054 | 73 | 360 | 0.0 | 1.0 | 0.00 | 1.22 | 0.01 | 64 | 1012.0 |
| 20260906064602 | 73 | 0 | 0.0 | 2.0 | 0.00 | 1.22 | 0.01 | 52 | 1012.5 |
| 20260906064549 | 73 | 360 | 0.0 | 1.0 | 0.00 | 1.22 | 0.01 | 64 | 1012.2 |
| 20260906063101 | 74 | 360 | 1.0 | 3.0 | 0.01 | 1.22 | 0.01 | 52 | 1012.4 |
| 20260906063048 | 74 | 360 | 1.0 | 3.0 | 0.01 | 1.22 | 0.01 | 63 | 1012.2 |
| 20260906061626 | 74 | 0 | 0.0 | 0.0 | 0.01 | 1.22 | 0.01 | 51 | 1012.5 |
| 20260906061548 | 74 | 360 | 0.0 | 0.0 | 0.01 | 1.22 | 0.01 | 63 | 1012.3 |
| 20260906060121 | 73 | 0 | 0.0 | 0.0 | 0.01 | 1.22 | 0.01 | 51 | 1012.5 |
| 20260906060038 | 73 | 360 | 0.0 | 0.0 | 0.01 | 1.22 | 0.01 | 63 | 1012.3 |
| 20260906054601 | 73 | 0 | 1.0 | 3.0 | 0.01 | 1.22 | 0.01 | 51 | 1012.3 |
| 20260906054532 | 73 | 360 | 1.0 | 3.0 | 0.01 | 1.22 | 0.01 | 63 | 1012.1 |
| 20260906053104 | 74 | 0 | 1.0 | 3.0 | 0.00 | 1.21 | 0.00 | 51 | 1012.2 |
| 20260906053027 | 74 | 360 | 0.0 | 3.0 | 0.00 | 1.21 | 0.00 | 62 | 1012.0 |
| 20260906051606 | 74 | 0 | 0.0 | 0.0 | 0.00 | 1.21 | 0.00 | 51 | 1012.1 |
| 20260906051525 | 74 | 360 | 0.0 | 0.0 | 0.00 | 1.21 | 0.00 | 62 | 1011.8 |
| 20260906050104 | 73 | 0 | 0.0 | 0.0 | 0.00 | 1.21 | 0.00 | 51 | 1011.9 |
| 20260906050019 | 73 | 360 | 0.0 | 0.0 | 0.00 | 1.21 | 0.00 | 62 | 1011.5 |
| 20260906044559 | 74 | 0 | 0.0 | 2.0 | 0.00 | 1.21 | 1.21 | 51 | 1011.7 |
| 20260906044518 | 73 | 360 | 0.0 | 2.0 | 0.00 | 1.21 | 1.21 | 62 | 1011.4 |
| 20260906043106 | 74 | 0 | 0.0 | 0.0 | 0.00 | 1.21 | 1.21 | 51 | 1011.8 |
| 20260906043018 | 74 | 360 | 0.0 | 0.0 | 0.00 | 1.21 | 1.21 | 62 | 1011.4 |
| 20260906041602 | 74 | 0 | 0.0 | 0.0 | 0.00 | 1.21 | 1.21 | 51 | 1011.7 |
| 20260906041532 | 74 | 360 | 0.0 | 0.0 | 0.00 | 1.21 | 1.21 | 62 | 1011.3 |
| 20260906040106 | 74 | 0 | 0.0 | 0.0 | 0.00 | 1.21 | 1.21 | 50 | 1011.8 |
| 20260906040020 | 74 | 360 | 0.0 | 0.0 | 0.00 | 1.21 | 1.21 | 62 | 1011.4 |
| 20260906034606 | 74 | 0 | 0.0 | 0.0 | 0.00 | 1.21 | 1.21 | 51 | 1011.6 |
| 20260906034516 | 74 | 360 | 0.0 | 0.0 | 0.00 | 1.21 | 1.21 | 62 | 1011.2 |
| 20260906033059 | 74 | 0 | 0.0 | 0.0 | 0.00 | 1.21 | 1.21 | 50 | 1011.5 |
| 20260906033016 | 74 | 360 | 0.0 | 0.0 | 0.00 | 1.21 | 1.21 | 61 | 1011.1 |
| 20260906031557 | 74 | 0 | 0.0 | 0.0 | 0.00 | 1.21 | 1.21 | 50 | 1011.3 |
| 20260906031514 | 74 | 360 | 0.0 | 0.0 | 0.00 | 1.21 | 1.21 | 61 | 1010.9 |
| 20260906030100 | 74 | 0 | 0.0 | 0.0 | 0.00 | 1.21 | 1.21 | 50 | 1011.1 |
| 20260906030013 | 74 | 360 | 0.0 | 0.0 | 0.00 | 1.21 | 1.21 | 61 | 1010.7 |
| 20260906024603 | 74 | 0 | 0.0 | 0.0 | 0.00 | 1.21 | 1.21 | 50 | 1010.9 |
| 20260906024512 | 74 | 360 | 0.0 | 0.0 | 0.00 | 1.21 | 1.21 | 61 | 1010.4 |
| 20260906023107 | 75 | 0 | 0.0 | 0.0 | 0.00 | 1.21 | 1.21 | 50 | 1011.1 |
| 20260906023014 | 75 | 360 | 0.0 | 0.0 | 0.00 | 1.21 | 1.21 | 61 | 1010.7 |
| 20260906021604 | 75 | 0 | 0.0 | 0.0 | 0.00 | 1.21 | 1.21 | 50 | 1011.3 |
| 20260906021512 | 75 | 360 | 0.0 | 0.0 | 0.00 | 1.21 | 1.21 | 61 | 1010.7 |
| 20260906020101 | 75 | 0 | 0.0 | 0.0 | 0.00 | 1.21 | 1.21 | 50 | 1011.3 |
| 20260906020011 | 75 | 360 | 0.0 | 0.0 | 0.00 | 1.21 | 1.21 | 62 | 1010.8 |
| 20260906014608 | 75 | 0 | 0.0 | 0.0 | 0.00 | 1.21 | 1.21 | 50 | 1011.3 |
| 20260906014525 | 75 | 360 | 0.0 | 0.0 | 0.00 | 1.21 | 1.21 | 62 | 1010.9 |
| 20260906013059 | 75 | 0 | 0.0 | 0.0 | 0.00 | 1.21 | 1.21 | 50 | 1011.7 |
| 20260906013014 | 75 | 360 | 0.0 | 0.0 | 0.00 | 1.21 | 1.21 | 62 | 1011.1 |
| 20260906011606 | 75 | 0 | 0.0 | 0.0 | 0.02 | 1.21 | 1.21 | 50 | 1011.7 |
| 20260906011510 | 75 | 360 | 0.0 | 0.0 | 0.02 | 1.21 | 1.21 | 62 | 1011.1 |
| 20260906010030 | 75 | 360 | 0.0 | 0.0 | 0.03 | 1.21 | 1.21 | 62 | 1011.5 |
| 20260906004604 | 75 | 0 | 0.0 | 0.0 | 0.03 | 1.21 | 1.21 | 51 | 1012.0 |
| 20260906004509 | 75 | 360 | 0.0 | 0.0 | 0.03 | 1.21 | 1.21 | 62 | 1011.5 |
| 20260906003101 | 75 | 0 | 0.0 | 0.0 | 0.04 | 1.21 | 1.21 | 51 | 1012.3 |
| 20260906003008 | 75 | 360 | 0.0 | 0.0 | 0.04 | 1.21 | 1.21 | 62 | 1011.9 |
| 20260906001558 | 75 | 0 | 0.0 | 0.0 | 0.02 | 1.19 | 1.19 | 51 | 1012.5 |
| 20260906001507 | 75 | 360 | 0.0 | 0.0 | 0.02 | 1.19 | 1.19 | 63 | 1012.1 |
| 20260906000111 | 76 | 0 | 0.0 | 0.0 | 0.02 | 1.17 | 1.17 | 52 | 1012.5 |
| 20260906000107 | 76 | 360 | 0.0 | 0.0 | 0.02 | 1.18 | 1.18 | 63 | 1012.1 |
| 20260905234606 | 75 | 0 | 0.0 | 1.0 | 0.02 | 1.17 | 1.17 | 52 | 1012.4 |
| 20260905234506 | 75 | 360 | 0.0 | 0.0 | 0.02 | 1.18 | 1.18 | 63 | 1012.0 |
| 20260905233117 | 76 | 0 | 0.0 | 1.0 | 0.01 | 1.16 | 1.16 | 53 | 1012.5 |
| 20260905233005 | 76 | 360 | 0.0 | 1.0 | 0.01 | 1.17 | 1.17 | 64 | 1012.1 |
| 20260905231601 | 75 | 0 | 0.0 | 2.0 | 0.01 | 1.16 | 1.16 | 52 | 1012.7 |
| 20260905231506 | 76 | 360 | 0.0 | 2.0 | 0.01 | 1.17 | 1.17 | 64 | 1012.2 |
| 20260905230105 | 76 | 0 | 1.0 | 8.0 | 0.00 | 1.16 | 1.16 | 53 | 1012.5 |
| 20260905230006 | 76 | 360 | 1.0 | 6.0 | 0.00 | 1.15 | 1.15 | 65 | 1012.1 |
| 20260905224604 | 76 | 360 | 3.0 | 6.0 | 0.00 | 1.16 | 1.16 | 53 | 1012.9 |
| 20260905224505 | 76 | 360 | 2.0 | 6.0 | 0.00 | 1.15 | 1.15 | 65 | 1012.5 |
| 20260905223105 | 76 | 360 | 2.0 | 6.0 | 0.01 | 1.16 | 1.16 | 54 | 1012.9 |
| 20260905223016 | 76 | 360 | 2.0 | 6.0 | 0.01 | 1.15 | 1.15 | 66 | 1012.4 |
| 20260905221605 | 75 | 360 | 1.0 | 4.0 | 0.09 | 1.16 | 1.16 | 55 | 1012.4 |
| 20260905221503 | 75 | 360 | 1.0 | 4.0 | 0.09 | 1.15 | 1.15 | 66 | 1011.8 |
| 20260905220105 | 75 | 360 | 0.0 | 3.0 | 0.41 | 1.16 | 1.16 | 55 | 1012.1 |
| 20260905220003 | 75 | 360 | 0.0 | 3.0 | 0.42 | 1.15 | 1.15 | 67 | 1011.3 |
| 20260905214604 | 75 | 360 | 0.0 | 4.0 | 1.16 | 1.16 | 1.16 | 57 | 1011.9 |
| 20260905214503 | 75 | 360 | 0.0 | 4.0 | 1.15 | 1.15 | 1.15 | 68 | 1011.2 |
| 20260905213113 | 74 | 0 | 0.0 | 4.0 | 1.15 | 1.15 | 1.15 | 57 | 1012.0 |
| 20260905213001 | 74 | 360 | 0.0 | 4.0 | 1.14 | 1.14 | 1.14 | 68 | 1011.3 |
| 20260905211610 | 74 | 360 | 4.0 | 6.0 | 1.07 | 1.07 | 1.07 | 58 | 1012.8 |
| 20260905211504 | 74 | 360 | 3.0 | 6.0 | 1.06 | 1.06 | 1.06 | 70 | 1012.2 |
| 20260905210112 | 76 | 360 | 10.0 | 20.0 | 0.75 | 0.75 | 0.75 | 62 | 1012.7 |
| 20260905210100 | 76 | 360 | 9.0 | 19.0 | 0.74 | 0.74 | 0.74 | 73 | 1012.0 |
| 20260905204603 | 80 | 360 | 3.0 | 10.0 | 0.00 | 0.00 | 0.00 | 59 | 1013.1 |
| 20260905204559 | 80 | 360 | 5.0 | 12.0 | 0.00 | 0.00 | 0.00 | 70 | 1012.6 |
| 20260905203102 | 83 | 284 | 5.0 | 13.0 | 0.00 | 0.00 | 0.00 | 56 | 1011.4 |
| 20260905203059 | 83 | 284 | 6.0 | 15.0 | 0.00 | 0.00 | 0.00 | 67 | 1010.6 |
| 20260905201603 | 86 | 321 | 4.0 | 16.0 | 0.00 | 0.00 | 0.00 | 52 | 1011.5 |
| 20260905200103 | 90 | 320 | 3.0 | 11.0 | 0.00 | 0.00 | 0.00 | 50 | 1011.7 |
| 20260905200053 | 90 | 320 | 2.0 | 11.0 | 0.00 | 0.00 | 0.00 | 61 | 1010.9 |
| 20260905194603 | 92 | 348 | 1.0 | 4.0 | 0.00 | 0.00 | 0.00 | 45 | 1011.6 |
| 20260905194550 | 92 | 348 | 1.0 | 3.0 | 0.00 | 0.00 | 0.00 | 56 | 1010.8 |
| 20260905193104 | 93 | 129 | 1.0 | 7.0 | 0.00 | 0.00 | 0.00 | 44 | 1011.6 |
| 20260905193048 | 93 | 129 | 2.0 | 4.0 | 0.00 | 0.00 | 0.00 | 56 | 1010.9 |
| 20260905191602 | 92 | 93 | 1.0 | 5.0 | 0.00 | 0.00 | 0.00 | 46 | 1011.7 |
| 20260905191546 | 92 | 93 | 0.0 | 4.0 | 0.00 | 0.00 | 0.00 | 58 | 1011.0 |
| 20260905190104 | 91 | 342 | 3.0 | 11.0 | 0.00 | 0.00 | 0.00 | 48 | 1011.8 |
| 20260905190043 | 91 | 342 | 2.0 | 11.0 | 0.00 | 0.00 | 0.00 | 60 | 1011.2 |
| 20260905184610 | 91 | 340 | 3.0 | 6.0 | 0.00 | 0.00 | 0.00 | 48 | 1012.0 |
| 20260905184545 | 91 | 340 | 2.0 | 6.0 | 0.00 | 0.00 | 0.00 | 60 | 1011.4 |
| 20260905183119 | 91 | 360 | 3.0 | 11.0 | 0.00 | 0.00 | 0.00 | 50 | 1012.1 |
| 20260905183043 | 91 | 360 | 2.0 | 11.0 | 0.00 | 0.00 | 0.00 | 62 | 1011.7 |
| 20260905181606 | 90 | 121 | 3.0 | 12.0 | 0.00 | 0.00 | 0.00 | 52 | 1012.3 |
| 20260905181535 | 90 | 148 | 2.0 | 8.0 | 0.00 | 0.00 | 0.00 | 64 | 1011.8 |
| 20260905180105 | 90 | 304 | 3.0 | 8.0 | 0.00 | 0.00 | 0.00 | 52 | 1012.5 |
| 20260905180033 | 90 | 304 | 5.0 | 8.0 | 0.00 | 0.00 | 0.00 | 63 | 1012.0 |
| 20260905174601 | 88 | 69 | 1.0 | 7.0 | 0.00 | 0.00 | 0.00 | 54 | 1012.7 |
| 20260905174528 | 88 | 71 | 1.0 | 6.0 | 0.00 | 0.00 | 0.00 | 66 | 1012.3 |
| 20260905173108 | 87 | 244 | 2.0 | 4.0 | 0.00 | 0.00 | 0.00 | 55 | 1013.0 |
| 20260905173025 | 87 | 244 | 2.0 | 4.0 | 0.00 | 0.00 | 0.00 | 67 | 1012.5 |
| 20260905171603 | 86 | 0 | 0.0 | 0.0 | 0.00 | 0.00 | 0.00 | 57 | 1013.4 |
| 20260905171524 | 86 | 291 | 0.0 | 0.0 | 0.00 | 0.00 | 0.00 | 68 | 1012.9 |
| 20260905170022 | 86 | 291 | 1.0 | 5.0 | 0.00 | 0.00 | 0.00 | 68 | 1013.0 |
| 20260905164604 | 85 | 0 | 1.0 | 4.0 | 0.00 | 0.00 | 0.00 | 58 | 1013.7 |
| 20260905164522 | 85 | 325 | 1.0 | 4.0 | 0.00 | 0.00 | 0.00 | 69 | 1013.1 |
| 20260905163108 | 86 | 336 | 2.0 | 5.0 | 0.00 | 0.00 | 0.00 | 56 | 1014.0 |
| 20260905163024 | 85 | 336 | 2.0 | 5.0 | 0.00 | 0.00 | 0.00 | 68 | 1013.4 |
| 20260905161600 | 86 | 0 | 0.0 | 6.0 | 0.00 | 0.00 | 0.00 | 55 | 1014.1 |
| 20260905161523 | 86 | 92 | 0.0 | 3.0 | 0.00 | 0.00 | 0.00 | 67 | 1013.6 |
| 20260905160107 | 85 | 5 | 2.0 | 8.0 | 0.00 | 0.00 | 0.00 | 55 | 1014.1 |
| 20260905160019 | 85 | 13 | 3.0 | 6.0 | 0.00 | 0.00 | 0.00 | 66 | 1013.6 |
| 20260905154601 | 85 | 338 | 2.0 | 6.0 | 0.00 | 0.00 | 0.00 | 54 | 1014.1 |
| 20260905154517 | 85 | 336 | 2.0 | 5.0 | 0.00 | 0.00 | 0.00 | 66 | 1013.6 |
| 20260905153116 | 84 | 343 | 2.0 | 8.0 | 0.00 | 0.00 | 0.00 | 53 | 1014.1 |
| 20260905153019 | 84 | 343 | 2.0 | 8.0 | 0.00 | 0.00 | 0.00 | 64 | 1013.6 |
| 20260905151611 | 83 | 5 | 1.0 | 6.0 | 0.00 | 0.00 | 0.00 | 52 | 1014.0 |
| 20260905151514 | 83 | 5 | 0.0 | 4.0 | 0.00 | 0.00 | 0.00 | 64 | 1013.5 |
| 20260905150059 | 82 | 0 | 1.0 | 4.0 | 0.00 | 0.00 | 0.00 | 50 | 1014.0 |
| 20260905150016 | 82 | 313 | 1.0 | 4.0 | 0.00 | 0.00 | 0.00 | 61 | 1013.5 |
| 20260905144603 | 80 | 0 | 0.0 | 2.0 | 0.00 | 0.00 | 0.00 | 48 | 1013.9 |
| 20260905144511 | 80 | 192 | 0.0 | 2.0 | 0.00 | 0.00 | 0.00 | 60 | 1013.4 |
| 20260905143103 | 79 | 0 | 0.0 | 0.0 | 0.00 | 0.00 | 0.00 | 48 | 1014.1 |
| 20260905143003 | 79 | 189 | 0.0 | 0.0 | 0.00 | 0.00 | 0.00 | 60 | 1013.6 |
| 20260905141609 | 79 | 0 | 0.0 | 0.0 | 0.00 | 0.00 | 0.00 | 49 | 1014.2 |
| 20260905141502 | 79 | 189 | 0.0 | 0.0 | 0.00 | 0.00 | 0.00 | 60 | 1013.7 |